Location: Unspecified
(37.3333°N, 0.0000°E)
Time: 02:34:46
(UTC+00:00)

Tiangong 2 - Pass Details

Date: 25 May 2019
Orbit: 376 x 389 km, 42.8° (Epoch: 16 June)

Event Time Altitude Azimuth Distance (km) Brightness Sun altitude
Rises 22:21:42 0° 294° (WNW) 2,235 5.6 -27.5°
Reaches altitude 10° 22:23:46 10° 297° (WNW) 1,382 4.5 -27.6°
Enters shadow 22:23:59 12° 298° (WNW) 1,296 4.3 -27.7°
